Radiation Dose at Monitoring Post of Fukushima Daini Nuclear Power Station
Date,Time,MP-1(microSv/h),MP-2(microSv/h),MP-3(microSv/h),MP-4(microSv/h),MP-5(microSv/h),MP-6(microSv/h),MP-7(microSv/h),Wind Direction,Wind Velocity(m/s),Rain
2014/11/27,00:00,0.587,0.383,0.626,0.567,0.577,0.262,0.228,north-northwest,10.4,Yes
2014/11/27,00:10,0.587,0.383,0.624,0.565,0.573,0.261,0.228,north-northwest,10.9,Yes
2014/11/27,00:20,0.590,0.381,0.625,0.565,0.575,0.261,0.228,north-northwest,10.1,No
2014/11/27,00:30,0.586,0.382,0.624,0.566,0.574,0.262,0.228,north-northwest,10.9,No
2014/11/27,00:40,0.584,0.383,0.625,0.565,0.575,0.259,0.226,north-northwest,10.4,No
2014/11/27,00:50,0.584,0.381,0.623,0.567,0.575,0.260,0.226,north-northwest,11.2,No
2014/11/27,01:00,0.585,0.381,0.625,0.563,0.574,0.260,0.226,north-northwest,10.8,No
2014/11/27,01:10,0.585,0.380,0.625,0.567,0.575,0.259,0.227,north-northwest,10.4,No
2014/11/27,01:20,0.586,0.380,0.626,0.565,0.575,0.259,0.224,north-northwest,10.4,No
2014/11/27,01:30,0.586,0.380,0.626,0.565,0.574,0.260,0.227,north-northwest,10.1,No
2014/11/27,01:40,0.585,0.379,0.625,0.566,0.572,0.259,0.226,north-northwest,9.8,No
2014/11/27,01:50,0.587,0.381,0.625,0.567,0.574,0.259,0.225,north-northwest,10.4,No
2014/11/27,02:00,0.585,0.381,0.627,0.566,0.573,0.259,0.227,north-northwest,10.5,No
2014/11/27,02:10,0.587,0.382,0.625,0.567,0.573,0.260,0.227,north-northwest,9.2,No
2014/11/27,02:20,0.588,0.381,0.629,0.566,0.574,0.261,0.226,north-northwest,10.1,No
2014/11/27,02:30,0.586,0.381,0.627,0.566,0.576,0.259,0.225,north-northwest,9.7,No
2014/11/27,02:40,0.587,0.380,0.629,0.568,0.575,0.260,0.227,north-northwest,10.8,No
2014/11/27,02:50,0.587,0.380,0.626,0.567,0.573,0.261,0.225,north-northwest,10.9,No
2014/11/27,03:00,0.589,0.381,0.629,0.568,0.574,0.261,0.226,north-northwest,10.9,No
2014/11/27,03:10,0.588,0.381,0.626,0.567,0.575,0.259,0.227,north-northwest,9.9,No
2014/11/27,03:20,0.589,0.383,0.628,0.568,0.575,0.261,0.227,north-northwest,9.1,No
2014/11/27,03:30,0.588,0.380,0.628,0.567,0.575,0.260,0.226,north-northwest,8.2,No
2014/11/27,03:40,0.586,0.381,0.627,0.569,0.576,0.259,0.226,north-northwest,8.2,No
2014/11/27,03:50,0.588,0.382,0.627,0.568,0.574,0.260,0.226,north-northwest,8.5,No
2014/11/27,04:00,0.591,0.381,0.627,0.568,0.575,0.260,0.227,north-northwest,9.6,No
2014/11/27,04:10,0.588,0.381,0.629,0.569,0.577,0.260,0.226,north-northwest,9.8,No
2014/11/27,04:20,0.589,0.382,0.627,0.568,0.577,0.260,0.226,north-northwest,9.6,No
2014/11/27,04:30,0.588,0.381,0.629,0.568,0.576,0.259,0.226,north-northwest,9.8,No
2014/11/27,04:40,0.588,0.381,0.628,0.567,0.575,0.261,0.227,north,10.0,No
2014/11/27,04:50,0.589,0.381,0.630,0.571,0.574,0.260,0.226,north-northwest,9.4,No
2014/11/27,05:00,0.589,0.380,0.629,0.570,0.575,0.261,0.226,north-northwest,9.5,No
2014/11/27,05:10,0.590,0.381,0.628,0.569,0.575,0.261,0.226,north-northwest,8.9,No
2014/11/27,05:20,0.588,0.381,0.629,0.568,0.576,0.261,0.227,north-northwest,9.1,No
2014/11/27,05:30,0.589,0.383,0.629,0.568,0.573,0.260,0.227,north-northwest,9.1,No
2014/11/27,05:40,0.590,0.383,0.630,0.568,0.575,0.261,0.226,north-northwest,8.2,No
2014/11/27,05:50,0.589,0.382,0.630,0.568,0.576,0.261,0.226,north-northwest,8.1,No
2014/11/27,06:00,0.591,0.382,0.629,0.570,0.576,0.261,0.227,north-northwest,8.1,No
2014/11/27,06:10,0.588,0.382,0.630,0.568,0.575,0.261,0.226,north-northwest,7.7,No
2014/11/27,06:20,0.591,0.382,0.631,0.568,0.574,0.260,0.227,north-northwest,8.4,No
2014/11/27,06:30,0.591,0.380,0.631,0.569,0.574,0.261,0.228,north-northwest,8.1,No
2014/11/27,06:40,0.588,0.383,0.629,0.570,0.575,0.260,0.226,north-northwest,8.3,No
2014/11/27,06:50,0.591,0.382,0.630,0.569,0.576,0.261,0.226,north-northwest,8.0,No
2014/11/27,07:00,0.591,0.381,0.631,0.571,0.575,0.261,0.227,north-northwest,7.9,No
2014/11/27,07:10,0.590,0.381,0.630,0.569,0.577,0.260,0.226,north-northwest,8.5,No
2014/11/27,07:20,0.590,0.382,0.631,0.571,0.576,0.263,0.227,north-northwest,7.3,No
2014/11/27,07:30,0.591,0.383,0.630,0.569,0.577,0.262,0.227,north-northwest,7.7,No
2014/11/27,07:40,0.591,0.382,0.630,0.570,0.577,0.262,0.228,north-northwest,6.3,Yes
2014/11/27,07:50,0.590,0.383,0.631,0.571,0.576,0.262,0.227,north-northwest,7.4,Yes
2014/11/27,08:00,0.591,0.382,0.631,0.569,0.577,0.262,0.227,north-northwest,6.5,No
2014/11/27,08:10,0.593,0.384,0.631,0.571,0.577,0.262,0.227,north-northwest,7.9,No
2014/11/27,08:20,0.593,0.383,0.631,0.572,0.576,0.261,0.228,north-northwest,7.4,No
2014/11/27,08:30,0.593,0.383,0.631,0.571,0.574,0.262,0.227,north-northwest,6.9,No
2014/11/27,08:40,0.591,0.383,0.632,0.570,0.576,0.262,0.227,north,6.7,No
2014/11/27,08:50,0.591,0.383,0.631,0.571,0.576,0.262,0.228,north-northwest,6.5,No
2014/11/27,09:00,0.592,0.383,0.631,0.571,0.577,0.263,0.226,north-northwest,7.3,No
2014/11/27,09:10,0.591,0.382,0.631,0.573,0.577,0.261,0.228,north-northwest,6.3,No
2014/11/27,09:20,0.591,0.384,0.634,0.573,0.577,0.263,0.229,north-northwest,6.4,No
2014/11/27,09:30,0.592,0.381,0.630,0.576,0.577,0.262,0.227,north-northwest,6.3,No
2014/11/27,09:40,0.595,0.379,0.632,0.575,0.576,0.263,0.228,north-northwest,5.5,No
2014/11/27,09:50,0.594,0.382,0.632,0.576,0.578,0.262,0.227,north-northwest,6.4,No
2014/11/27,10:00,0.593,-,0.633,0.574,0.577,0.264,0.229,north-northwest,7.2,No
2014/11/27,10:10,0.594,-,0.632,0.575,0.580,0.263,0.227,north-northwest,7.9,No
2014/11/27,10:20,0.592,-,0.633,0.575,0.578,0.264,0.229,north,5.6,No
2014/11/27,10:30,0.593,-,0.634,0.575,0.578,0.263,0.229,north,5.2,No
2014/11/27,10:40,0.593,-,0.634,0.575,0.580,0.264,0.227,north-northwest,5.6,No
2014/11/27,10:50,0.593,-,0.632,0.574,0.579,0.263,0.230,north,6.6,No
2014/11/27,11:00,0.594,-,0.634,0.577,0.579,0.264,0.228,north,6.2,No
2014/11/27,11:10,0.595,-,0.634,0.577,0.579,0.263,0.231,north,6.5,No
2014/11/27,11:20,0.593,-,0.634,0.576,0.580,0.264,0.229,north-northwest,6.1,No
2014/11/27,11:30,0.593,-,0.634,0.579,0.579,0.263,0.229,north-northwest,4.8,No
2014/11/27,11:40,0.594,-,0.633,0.577,0.580,0.264,0.229,north-northwest,5.6,No
2014/11/27,11:50,0.596,-,0.635,0.578,0.580,0.262,0.229,north,4.9,No
2014/11/27,12:00,0.595,-,0.635,0.577,0.580,0.265,0.229,north,6.0,No
2014/11/27,12:10,0.593,-,0.633,0.575,0.579,0.263,0.229,north,5.0,No
2014/11/27,12:20,0.596,-,0.634,0.577,0.579,0.265,0.229,north,4.2,No
2014/11/27,12:30,0.595,-,0.634,0.579,0.578,0.263,0.229,north-northeast,5.4,No
2014/11/27,12:40,0.595,-,0.635,0.581,0.578,0.265,0.231,north-northeast,6.4,No
2014/11/27,12:50,0.594,-,0.634,0.580,0.578,0.264,0.229,north-northeast,6.4,No
2014/11/27,13:00,0.595,-,0.637,0.580,0.578,0.264,0.230,north-northeast,6.1,No
2014/11/27,13:10,0.595,-,0.635,0.583,0.577,0.262,0.231,northeast,7.8,No
2014/11/27,13:20,0.596,-,0.635,0.583,0.577,0.265,0.229,north-northeast,7.0,No
2014/11/27,13:30,0.594,-,0.635,0.583,0.578,0.265,0.230,north-northeast,7.0,No
2014/11/27,13:40,0.595,-,0.637,0.583,0.577,0.265,0.229,north-northeast,6.4,No
2014/11/27,13:50,0.596,-,0.636,0.584,0.576,0.265,0.230,north,6.9,No
2014/11/27,14:00,0.596,-,0.635,0.588,0.577,0.264,0.228,north,6.5,No
2014/11/27,14:10,0.594,-,0.635,0.587,0.577,0.263,0.230,north,5.8,No
2014/11/27,14:20,0.595,-,0.635,0.583,0.578,0.262,0.231,north,4.8,No
2014/11/27,14:30,0.596,-,0.635,0.584,0.578,0.264,0.230,north,6.1,No
2014/11/27,14:40,0.597,-,0.633,0.583,0.578,0.263,0.231,north,6.4,No
2014/11/27,14:50,0.596,-,0.633,0.584,0.578,0.263,0.231,north,6.0,No
2014/11/27,15:00,0.596,-,0.632,0.583,0.577,0.264,0.232,north,4.8,No
2014/11/27,15:10,0.594,-,0.635,0.580,0.578,0.264,0.230,north,4.2,No
2014/11/27,15:20,0.595,0.387,0.633,0.580,0.577,0.264,0.229,north,4.4,No
2014/11/27,15:30,0.597,0.386,0.633,0.580,0.577,0.263,0.230,north,4.2,No
2014/11/27,15:40,0.595,0.389,0.634,0.578,0.578,0.265,0.230,north,4.2,No
2014/11/27,15:50,0.595,0.389,0.633,0.578,0.575,0.263,0.229,north,3.0,No
2014/11/27,16:00,0.595,0.389,0.634,0.572,0.576,0.265,0.230,north,3.6,No
2014/11/27,16:10,0.594,0.389,0.630,0.573,0.579,0.264,0.230,north,4.0,No
2014/11/27,16:20,0.595,0.388,0.633,0.574,0.577,0.264,0.231,north,4.3,No
2014/11/27,16:30,0.595,0.390,0.631,0.573,0.579,0.265,0.230,north,4.2,No
2014/11/27,16:40,0.595,0.388,0.633,0.572,0.577,0.264,0.229,north,4.2,No
2014/11/27,16:50,0.595,0.389,0.632,0.574,0.575,0.265,0.229,north,4.1,No
2014/11/27,17:00,0.597,0.390,0.633,0.574,0.576,0.265,0.231,north,4.5,No
2014/11/27,17:10,0.596,0.389,0.633,0.573,0.577,0.264,0.230,north,4.9,No
2014/11/27,17:20,0.598,0.388,0.631,0.572,0.576,0.265,0.231,north,4.8,No
2014/11/27,17:30,0.595,0.389,0.632,0.573,0.576,0.267,0.230,north,4.6,No
2014/11/27,17:40,0.598,0.388,0.631,0.573,0.578,0.265,0.231,north,4.8,No
2014/11/27,17:50,0.596,0.389,0.631,0.574,0.577,0.265,0.232,north,4.8,No
2014/11/27,18:00,0.596,0.389,0.630,0.573,0.577,0.265,0.230,north,4.5,No
2014/11/27,18:10,0.596,0.386,0.631,0.574,0.578,0.266,0.231,north-northwest,4.4,No
2014/11/27,18:20,0.595,0.389,0.632,0.575,0.577,0.266,0.230,north-northwest,4.8,No
2014/11/27,18:30,0.596,0.389,0.632,0.576,0.578,0.266,0.232,north-northwest,4.4,No
2014/11/27,18:40,0.595,0.387,0.629,0.575,0.578,0.264,0.231,north-northwest,4.4,No
2014/11/27,18:50,0.595,0.388,0.630,0.572,0.577,0.265,0.232,north,3.9,No
2014/11/27,19:00,0.596,0.389,0.631,0.573,0.577,0.266,0.231,north,3.6,No
2014/11/27,19:10,0.598,0.390,0.633,0.574,0.576,0.266,0.232,north,3.9,No
2014/11/27,19:20,0.597,0.388,0.630,0.575,0.577,0.266,0.230,north-northwest,3.3,No
2014/11/27,19:30,0.596,0.389,0.630,0.575,0.577,0.265,0.231,north,3.0,No
2014/11/27,19:40,0.595,0.389,0.631,0.576,0.578,0.266,0.231,north,4.0,No
2014/11/27,19:50,0.597,0.387,0.630,0.574,0.577,0.266,0.231,north,3.6,No
2014/11/27,20:00,0.596,0.388,0.630,0.574,0.576,0.265,0.231,north,3.7,No
2014/11/27,20:10,0.599,0.389,0.632,0.574,0.576,0.265,0.231,north,3.4,No
2014/11/27,20:20,0.595,0.390,0.631,0.576,0.576,0.265,0.231,north,3.6,No
2014/11/27,20:30,0.597,0.388,0.632,0.574,0.577,0.266,0.232,north,3.7,No
2014/11/27,20:40,0.594,0.389,0.631,0.573,0.577,0.266,0.230,north-northwest,3.1,No
2014/11/27,20:50,0.597,0.388,0.633,0.574,0.579,0.264,0.232,north-northwest,2.5,No
2014/11/27,21:00,0.597,0.389,0.631,0.574,0.577,0.266,0.232,north-northwest,2.2,No
2014/11/27,21:10,0.597,0.388,0.633,0.574,0.578,0.265,0.232,north-northwest,2.0,No
2014/11/27,21:20,0.596,0.389,0.630,0.575,0.578,0.264,0.231,north-northwest,2.5,No
2014/11/27,21:30,0.594,0.389,0.630,0.574,0.576,0.265,0.231,north,2.3,No
2014/11/27,21:40,0.597,0.388,0.631,0.575,0.578,0.265,0.233,north-northwest,2.4,No
2014/11/27,21:50,0.596,0.389,0.630,0.576,0.578,0.266,0.232,north,2.5,No
2014/11/27,22:00,0.595,0.388,0.634,0.573,0.577,0.265,0.232,north,1.9,No
2014/11/27,22:10,0.595,0.388,0.633,0.575,0.577,0.265,0.232,north,2.5,No
2014/11/27,22:20,0.596,0.388,0.630,0.574,0.577,0.266,0.232,north-northwest,1.9,No
2014/11/27,22:30,0.595,0.388,0.633,0.575,0.579,0.266,0.233,north-northwest,2.0,No
2014/11/27,22:40,0.596,0.389,0.631,0.574,0.576,0.265,0.232,north-northwest,1.8,No
2014/11/27,22:50,0.597,0.388,0.632,0.575,0.577,0.265,0.231,north-northwest,1.7,No
2014/11/27,23:00,0.596,0.389,0.632,0.576,0.577,0.265,0.232,northwest,0.9,No
2014/11/27,23:10,0.596,0.388,0.631,0.575,0.579,0.266,0.232,north-northwest,1.4,No
2014/11/27,23:20,0.596,0.390,0.629,0.574,0.576,0.265,0.232,northwest,1.7,No
2014/11/27,23:30,0.598,0.389,0.631,0.576,0.576,0.266,0.231,west-northwest,1.6,No
2014/11/27,23:40,0.597,0.388,0.629,0.574,0.578,0.267,0.230,west,1.2,No
2014/11/27,23:50,0.596,0.389,0.630,0.575,0.578,0.266,0.232,northwest,0.8,No
